• In Netherlands
  • List of Countries
  • For 7 days
  • Water Temperature
  • Satellite Maps
  • Weather Map
  • Weather Widgets
  • user-avatar
    Login

    Hourly Weather Essen

    Today, 11 December, Monday

    Time Temperature Precipitation Wind Pressure Humidity
    00:00 -1°C° 0.1 mm 6 mps 728 mmHg 86%
    01:00 0°C° 0 mm 5 mps 728 mmHg 88%
    02:00 0°C° 0 mm 3 mps 729 mmHg 90%
    03:00 -1°C° 0 mm 2 mps 730 mmHg 91%
    04:00 -1°C° 0 mm 2 mps 730 mmHg 91%
    05:00 -1°C° 0 mm 2 mps 730 mmHg 91%
    06:00 -2°C° 0 mm 2 mps 730 mmHg 90%
    07:00 -1°C° 0.2 mm 3 mps 730 mmHg 89%
    08:00 -1°C° 0.2 mm 3 mps 729 mmHg 87%
    09:00 -2°C° 0.2 mm 4 mps 729 mmHg 85%
    10:00 -1°C° 1.3 mm 4 mps 729 mmHg 88%
    11:00 -1°C° 1.3 mm 5 mps 728 mmHg 90%
    12:00 -2°C° 1.3 mm 6 mps 728 mmHg 92%
    13:00 0°C° 1.5 mm 5 mps 727 mmHg 93%
    14:00 0°C° 1.5 mm 5 mps 727 mmHg 94%
    15:00 0°C° 1.5 mm 5 mps 726 mmHg 95%
    16:00 +1°C° 0.2 mm 5 mps 726 mmHg 95%
    17:00 +1°C° 0.2 mm 4 mps 726 mmHg 94%
    18:00 +3°C° 0.2 mm 4 mps 726 mmHg 94%
    19:00 +3°C° 0.4 mm 4 mps 726 mmHg 93%
    20:00 +3°C° 0.4 mm 4 mps 726 mmHg 92%
    21:00 +3°C° 0.4 mm 5 mps 726 mmHg 90%
    22:00 +2°C° 0.1 mm 5 mps 727 mmHg 91%
    23:00 +1°C° 0.1 mm 5 mps 728 mmHg 92%

    Tomorrow, 12 December, Tuesday

    Time Temperature Precipitation Wind Pressure Humidity
    00:00 0°C° 0.1 mm 5 mps 729 mmHg 92%
    01:00 -1°C° 0.3 mm 6 mps 731 mmHg 91%
    02:00 -1°C° 0.3 mm 6 mps 732 mmHg 90%
    03:00 -1°C° 0.3 mm 7 mps 734 mmHg 89%
    04:00 -2°C° 0.2 mm 6 mps 736 mmHg 87%
    05:00 -2°C° 0.2 mm 6 mps 737 mmHg 85%
    06:00 -1°C° 0.2 mm 5 mps 739 mmHg 83%
    07:00 -1°C° 0 mm 5 mps 740 mmHg 83%
    08:00 -2°C° 0 mm 6 mps 742 mmHg 83%
    09:00 -2°C° 0 mm 6 mps 743 mmHg 83%
    10:00 -1°C° 0.1 mm 6 mps 744 mmHg 83%
    11:00 -1°C° 0.1 mm 6 mps 745 mmHg 84%
    12:00 +1°C° 0.1 mm 6 mps 746 mmHg 84%
    13:00 0°C° 0.1 mm 5 mps 746 mmHg 86%
    14:00 0°C° 0.1 mm 5 mps 747 mmHg 87%
    15:00 0°C° 0.1 mm 4 mps 748 mmHg 88%
    16:00 -1°C° 0 mm 4 mps 749 mmHg 89%
    17:00 -1°C° 0 mm 4 mps 750 mmHg 90%
    18:00 -1°C° 0 mm 4 mps 750 mmHg 91%
    19:00 -1°C° 0 mm 4 mps 751 mmHg 90%
    20:00 -2°C° 0 mm 4 mps 751 mmHg 89%
    21:00 -2°C° 0 mm 4 mps 752 mmHg 88%
    22:00 -2°C° 0 mm 4 mps 751 mmHg 88%
    23:00 -2°C° 0 mm 4 mps 751 mmHg 88%

    Day after tomorrow, 13 December, Wednesday

    Time Temperature Precipitation Wind Pressure Humidity
    00:00 -2°C° 0 mm 4 mps 751 mmHg 88%
    01:00 -1°C° 0 mm 4 mps 751 mmHg 88%
    02:00 -1°C° 0 mm 4 mps 751 mmHg 87%
    03:00 -1°C° 0 mm 5 mps 751 mmHg 87%
    04:00 0°C° 0 mm 5 mps 750 mmHg 86%
    05:00 0°C° 0 mm 5 mps 750 mmHg 85%
    06:00 -1°C° 0 mm 6 mps 749 mmHg 84%
    07:00 -1°C° 0 mm 6 mps 748 mmHg 82%
    08:00 +1°C° 0 mm 6 mps 748 mmHg 80%
    09:00 0°C° 0 mm 7 mps 747 mmHg 79%
    10:00 0°C° 0.7 mm 7 mps 746 mmHg 79%
    11:00 +1°C° 0.7 mm 8 mps 745 mmHg 80%
    12:00 +1°C° 0.7 mm 8 mps 744 mmHg 81%
    13:00 +1°C° 1.1 mm 8 mps 743 mmHg 83%
    14:00 +2°C° 1.1 mm 7 mps 743 mmHg 85%
    15:00 +3°C° 1.1 mm 7 mps 742 mmHg 87%
    16:00 +3°C° 0.2 mm 6 mps 742 mmHg 89%
    17:00 +3°C° 0.2 mm 6 mps 742 mmHg 90%
    18:00 +3°C° 0.2 mm 5 mps 742 mmHg 91%
    19:00 +3°C° 0.4 mm 5 mps 741 mmHg 91%
    20:00 +3°C° 0.4 mm 6 mps 741 mmHg 91%
    21:00 +4°C° 0.4 mm 6 mps 741 mmHg 91%
    22:00 +3°C° 0.1 mm 6 mps 741 mmHg 88%
    23:00 +3°C° 0.1 mm 6 mps 741 mmHg 85%

    14 December, Thursday

    Time Temperature Precipitation Wind Pressure Humidity
    00:00 +2°C° 0.1 mm 6 mps 741 mmHg 81%
    01:00 +2°C° 0.3 mm 6 mps 741 mmHg 79%
    02:00 +2°C° 0.3 mm 7 mps 741 mmHg 77%
    03:00 +2°C° 0.3 mm 7 mps 741 mmHg 74%
    04:00 +1°C° 0 mm 6 mps 740 mmHg 75%
    05:00 +1°C° 0 mm 6 mps 740 mmHg 76%
    06:00 +1°C° 0 mm 5 mps 740 mmHg 76%
    07:00 +1°C° 0.8 mm 6 mps 739 mmHg 76%
    08:00 +2°C° 0.8 mm 7 mps 738 mmHg 76%
    09:00 +3°C° 0.8 mm 7 mps 737 mmHg 76%
    10:00 +2°C° 1.4 mm 8 mps 736 mmHg 78%
    11:00 +2°C° 1.4 mm 8 mps 735 mmHg 79%
    12:00 +2°C° 1.4 mm 8 mps 734 mmHg 81%
    13:00 +3°C° 0.5 mm 7 mps 734 mmHg 80%
    14:00 +2°C° 0.5 mm 6 mps 734 mmHg 79%
    15:00 +2°C° 0.5 mm 5 mps 734 mmHg 79%
    16:00 +2°C° 0.1 mm 5 mps 734 mmHg 78%
    17:00 +1°C° 0.1 mm 5 mps 735 mmHg 77%
    18:00 +1°C° 0.1 mm 5 mps 735 mmHg 75%
    19:00 0°C° 0 mm 5 mps 736 mmHg 75%
    20:00 0°C° 0 mm 5 mps 736 mmHg 75%
    21:00 0°C° 0 mm 5 mps 737 mmHg 75%
    22:00 -1°C° 0 mm 6 mps 737 mmHg 76%
    23:00 -1°C° 0 mm 6 mps 737 mmHg 76%

    15 December, Friday

    Time Temperature Precipitation Wind Pressure Humidity
    00:00 -1°C° 0 mm 6 mps 738 mmHg 77%
    01:00 -1°C° 0 mm 6 mps 738 mmHg 77%
    02:00 -1°C° 0 mm 6 mps 738 mmHg 78%
    03:00 0°C° 0 mm 5 mps 739 mmHg 78%
    04:00 0°C° 0 mm 5 mps 739 mmHg 81%
    05:00 0°C° 0 mm 5 mps 740 mmHg 84%
    06:00 0°C° 0 mm 4 mps 740 mmHg 86%
    07:00 0°C° 0 mm 4 mps 740 mmHg 86%
    08:00 0°C° 0 mm 4 mps 741 mmHg 86%
    09:00 +1°C° 0 mm 3 mps 741 mmHg 85%
    10:00 +1°C° 0.1 mm 3 mps 741 mmHg 84%
    11:00 +2°C° 0.1 mm 3 mps 741 mmHg 82%
    12:00 +2°C° 0.1 mm 3 mps 741 mmHg 80%
    13:00 +3°C° 0.4 mm 2 mps 741 mmHg 82%
    14:00 +3°C° 0.4 mm 2 mps 741 mmHg 85%
    15:00 +4°C° 0.4 mm 1 mps 741 mmHg 87%
    16:00 +3°C° 0.3 mm 1 mps 741 mmHg 88%
    17:00 +3°C° 0.3 mm 1 mps 742 mmHg 89%
    18:00 +3°C° 0.3 mm 1 mps 742 mmHg 90%
    19:00 +3°C° 0 mm 1 mps 743 mmHg 91%
    20:00 +2°C° 0 mm 1 mps 743 mmHg 92%
    21:00 +2°C° 0 mm 1 mps 744 mmHg 93%
    22:00 +1°C° 0 mm 2 mps 744 mmHg 92%
    23:00 +1°C° 0 mm 2 mps 745 mmHg 92%

    16 December, Saturday

    Time Temperature Precipitation Wind Pressure Humidity
    00:00 -1°C° 0 mm 2 mps 745 mmHg 91%
    01:00 -1°C° 0 mm 2 mps 745 mmHg 91%
    02:00 -1°C° 0 mm 2 mps 746 mmHg 91%
    03:00 -1°C° 0 mm 2 mps 746 mmHg 90%
    04:00 -1°C° 0 mm 2 mps 746 mmHg 90%
    05:00 -1°C° 0 mm 2 mps 747 mmHg 90%
    06:00 -1°C° 0 mm 2 mps 747 mmHg 90%
    07:00 -1°C° 0 mm 3 mps 748 mmHg 90%
    08:00 0°C° 0 mm 3 mps 748 mmHg 89%
    09:00 0°C° 0 mm 3 mps 749 mmHg 88%
    10:00 +1°C° 0.1 mm 3 mps 749 mmHg 86%
    11:00 +2°C° 0.1 mm 3 mps 749 mmHg 85%
    12:00 +2°C° 0.1 mm 3 mps 749 mmHg 83%
    13:00 +2°C° 0.1 mm 3 mps 750 mmHg 84%
    14:00 +2°C° 0.1 mm 3 mps 750 mmHg 85%
    15:00 +2°C° 0.1 mm 3 mps 750 mmHg 85%
    16:00 +1°C° 0 mm 3 mps 751 mmHg 86%
    17:00 +1°C° 0 mm 3 mps 751 mmHg 87%
    18:00 0°C° 0 mm 3 mps 751 mmHg 88%
    19:00 0°C° 0 mm 3 mps 752 mmHg 89%
    20:00 0°C° 0 mm 3 mps 752 mmHg 89%
    21:00 -1°C° 0 mm 4 mps 752 mmHg 89%
    22:00 -1°C° 0 mm 4 mps 752 mmHg 89%
    23:00 -2°C° 0 mm 4 mps 752 mmHg 88%
    Show more